Location: Strawberry
(45.6646°N, 111.9596°W)
Time: 00:59:03
(UTC+00:00)

Vanguard 1 Rocket - Pass Details

Date: 03 October 2022
Orbit: 650 x 4225 km, 34.3° (Epoch: 05 December)

Event Time Altitude Azimuth Distance (km) Brightness Sun altitude
Rises 02:34:38 0° 229° (SW) 8,312 12.9 -16.3°
Reaches altitude 10° 02:41:19 10° 224° (SW) 6,995 12.3 -17.4°
Maximum altitude 03:00:15 41° 164° (SSE) 3,529 10.1 -20.6°
Enters shadow 03:06:26 28° 119° (ESE) 3,473 9.7 -21.7°
